GAOFEN-9 01

Last updated on Wed Sep 17 2025 00:02:31 GMT+0000 (Coordinated Universal Time)

1 40894U 15047A 25259.64801418 .00000933 00000+0 12309-3 0 9999 2 40894 97.6683 302.3112 0026698 319.4115 40.5108 14.82083911539667
UTC large
Height (km)
Speed (km/s)
/
Latitude / Longitude
Inclination (degrees)
Orbital Period (minutes)
Azimuth
Elevation
Range (km)
Doppler Factor

Next 0 passes for location: London (51.5072 / 0.1276)

Sorry there are no passes over London.